Chippewa, MI

8:35 AM EST on November 12, 2019 (GMT -0500)
Chippewa County International

Weather History for KCIU - September, 2019

Change the Weather History Date:

Wednesday, September 18, 2019

  Actual Average Record
Temperature  
Mean Temperature 67 °F -  
Max Temperature 77 °F 64 °F 80 °F (2007)
Min Temperature 57 °F 43 °F 28 °F (1990)
Cooling Degree Days 2    
Growing Degree Days 17 (Base 50)    
Moisture  
Dew Point 58 °F    
Average Humidity 86    
Maximum Humidity 100    
Minimum Humidity 52    
Precipitation  
Precipitation 0.15 in - - ()
Sea Level Pressure  
Sea Level Pressure 30.16 in    
Wind  
Wind Speed 7 mph ()    
Max Wind Speed 12 mph    
Max Gust Speed 20 mph    
Visibility 8.8 miles    
Events      
Averages and records for this station are not official NWS values.
T = Trace of Precipitation, MM = Missing Value Source: Averaged Metar Reports

Daily Weather History Graph

Daily Weather History Graph

Search for Another Location

Airport or City:

Astronomy

Sep. 18, 2019 Rise Set
Actual Time 7:19 AM EDT 7:43 PM EDT
Civil Twilight 6:49 AM EDT 8:13 PM EDT
Nautical Twilight 6:13 AM EDT 8:49 PM EDT
Astronomical Twilight 5:36 AM EDT 9:25 PM EDT
Moon 10:03 PM EDT (9/18) 11:34 AM EDT (9/18)
Length of Visible Light 13h 24m
Length of Day
12h 24m
Waning Gibbous, 82% of the Moon is Illuminated
Sep 18
Waning Gibbous
Sep 21
Last Quarter
Sep 28
New
Oct 5
First Quarter
Oct 13
Full

Hourly Weather History & Observations

Time (EDT) Temp. Dew Point Humidity Pressure Visibility Wind Dir Wind Speed Gust Speed Precip Events Conditions
12:32 AM 57.2 °F 57.2 °F 100% 30.15 in 6.0 mi ESE 8.1 mph - N/A   Scattered Clouds
12:41 AM 57.2 °F 57.2 °F 100% 30.15 in 6.0 mi ESE 8.1 mph - N/A   Mostly Cloudy
12:56 AM 57.9 °F 57.9 °F 100% 30.15 in 5.0 mi ESE 8.1 mph - N/A   Overcast
1:56 AM 59.0 °F 57.9 °F 96% 30.16 in 8.0 mi SE 6.9 mph - N/A   Scattered Clouds
2:56 AM 59.0 °F 57.9 °F 96% 30.15 in 10.0 mi SSE 6.9 mph - N/A   Clear
3:56 AM 59.0 °F 57.9 °F 96% 30.15 in 10.0 mi SE 5.8 mph - N/A   Clear
4:56 AM 59.0 °F 57.9 °F 96% 30.15 in 9.0 mi SE 6.9 mph - 0.06 in   Clear
5:56 AM 59.0 °F 57.9 °F 96% 30.16 in 10.0 mi SE 6.9 mph - N/A   Clear
6:56 AM 57.9 °F 57.9 °F 100% 30.16 in 9.0 mi SE 5.8 mph - N/A   Clear
7:56 AM 59.0 °F 57.9 °F 96% 30.16 in 8.0 mi SE 8.1 mph - N/A   Clear
8:30 AM 57.2 °F 57.2 °F 100% 30.16 in 6.0 mi SE 8.1 mph - N/A   Partly Cloudy
8:56 AM 60.1 °F 59.0 °F 96% 30.17 in 9.0 mi SE 9.2 mph - N/A   Partly Cloudy
9:56 AM 63.0 °F 60.1 °F 90% 30.18 in 10.0 mi SSE 10.4 mph - N/A   Clear
10:12 AM 64.4 °F 60.8 °F 88% 30.18 in 10.0 mi SSE 11.5 mph - N/A   Partly Cloudy
10:56 AM 66.9 °F 62.1 °F 84% 30.18 in 10.0 mi SSE 9.2 mph - N/A   Clear
11:56 AM 71.1 °F 61.0 °F 70% 30.17 in 10.0 mi South 11.5 mph - 0.09 in   Clear
12:56 PM 73.0 °F 57.9 °F 59% 30.16 in 10.0 mi SSW 10.4 mph 18.4 mph N/A   Clear
1:56 PM 75.0 °F 57.0 °F 53% 30.15 in 10.0 mi SW 9.2 mph 19.6 mph N/A   Clear
2:56 PM 77.0 °F 57.9 °F 52% 30.14 in 10.0 mi South 10.4 mph - N/A   Clear
3:56 PM 77.0 °F 59.0 °F 54% 30.12 in 10.0 mi South 9.2 mph - N/A   Clear